Buffalo, NY

6:51 PM EST on November 22, 2019 (GMT -0500)
Buffalo Niagara International

Weather History for KBUF - September, 2019

Change the Weather History Date:

Tuesday, September 3, 2019

  Actual Average Record
Temperature  
Mean Temperature 68 °F 67 °F  
Max Temperature 78 °F 76 °F 98 °F (1953)
Min Temperature 58 °F 58 °F 42 °F (1946)
Degree Days  
Heating Degree Days 0 2  
Month to date heating degree days 0 5  
Since 1 July heating degree days 3 32  
Cooling Degree Days 3 3  
Month to date cooling degree days 8 10  
Year to date cooling degree days 553 497  
Growing Degree Days 18 (Base 50)    
Moisture  
Dew Point 60 °F    
Average Humidity 78    
Maximum Humidity 97    
Minimum Humidity 58    
Precipitation  
Precipitation 0.00 in 0.12 in 1.79 in (1878)
Month to date precipitation 1.55 0.35  
Year to date precipitation 29.92 25.51  
Snow  
Snow 0.00 in 0.00 in 0.00 in ()
Month to date snowfall 0.0 0.0  
Since 1 July snowfall 0.0 0.0  
Since 1 September snowfall 0.0 0.0  
Snow Depth 0.00 in    
Sea Level Pressure  
Sea Level Pressure 29.98 in    
Wind  
Wind Speed 8 mph (South)    
Max Wind Speed 24 mph    
Max Gust Speed 33 mph    
Visibility 10 miles    
Events      
T = Trace of Precipitation, MM = Missing Value Source: NWS Daily Summary

Daily Weather History Graph

Daily Weather History Graph

Search for Another Location

Airport or City:

Astronomy

Sep. 03, 2019 Rise Set
Actual Time 6:41 AM EDT 7:46 PM EDT
Civil Twilight 6:12 AM EDT 8:15 PM EDT
Nautical Twilight 5:37 AM EDT 8:50 PM EDT
Astronomical Twilight 5:00 AM EDT 9:26 PM EDT
Moon 11:39 AM EDT (9/3) 10:34 PM EDT (9/3)
Length of Visible Light 14h 03m
Length of Day
13h 05m
Waxing Crescent, 24% of the Moon is Illuminated
Sep 3
Waxing Crescent
Sep 5
First Quarter
Sep 14
Full
Sep 21
Last Quarter
Sep 28
New

Hourly Weather History & Observations

Time (EDT) Temp. Dew Point Humidity Pressure Visibility Wind Dir Wind Speed Gust Speed Precip Events Conditions
12:54 AM 64.0 °F 60.1 °F 87% 30.04 in 10.0 mi Calm Calm - N/A   Partly Cloudy
1:54 AM 63.0 °F 60.1 °F 90% 30.06 in 10.0 mi Calm Calm - N/A   Scattered Clouds
2:54 AM 61.0 °F 59.0 °F 93% 30.04 in 10.0 mi Calm Calm - N/A   Partly Cloudy
3:49 AM 62.6 °F 59.0 °F 88% 30.04 in 10.0 mi Calm Calm - N/A   Mostly Cloudy
3:54 AM 62.1 °F 59.0 °F 90% 30.04 in 10.0 mi Calm Calm - N/A   Mostly Cloudy
4:09 AM 61.0 °F 57.9 °F 90% 30.04 in 10.0 mi Calm Calm - N/A   Scattered Clouds
4:54 AM 61.0 °F 57.9 °F 90% 30.05 in 10.0 mi Calm Calm - N/A   Scattered Clouds
5:54 AM 60.1 °F 57.0 °F 90% 30.06 in 10.0 mi Calm Calm - N/A   Scattered Clouds
6:35 AM 60.1 °F 57.0 °F 90% 30.07 in 8.0 mi Calm Calm - N/A   Scattered Clouds
6:43 AM 60.1 °F 57.0 °F 90% 30.07 in 10.0 mi East 3.5 mph - N/A   Mostly Cloudy
6:54 AM 61.0 °F 57.9 °F 90% 30.07 in 10.0 mi East 3.5 mph - N/A   Mostly Cloudy
7:11 AM 61.0 °F 59.0 °F 93% 30.08 in 8.0 mi Calm Calm - N/A   Mostly Cloudy
7:22 AM 61.0 °F 57.9 °F 90% 30.08 in 8.0 mi Calm Calm - N/A   Mostly Cloudy
7:54 AM 61.0 °F 59.0 °F 93% 30.07 in 9.0 mi Calm Calm - N/A   Mostly Cloudy
8:54 AM 64.0 °F 59.0 °F 84% 30.06 in 10.0 mi ESE 4.6 mph - N/A   Partly Cloudy
9:01 AM 64.9 °F 59.0 °F 81% 30.07 in 10.0 mi SE 5.8 mph - N/A   Partly Cloudy
9:54 AM 68.0 °F 60.1 °F 76% 30.05 in 10.0 mi SE 6.9 mph - N/A   Scattered Clouds
10:54 AM 70.0 °F 60.1 °F 71% 30.05 in 10.0 mi WSW 4.6 mph - N/A   Scattered Clouds
11:54 AM 73.9 °F 61.0 °F 64% 30.02 in 10.0 mi Variable 5.8 mph - N/A   Mostly Cloudy
12:54 PM 75.9 °F 59.0 °F 56% 29.99 in 10.0 mi SSE 11.5 mph - N/A   Mostly Cloudy
1:54 PM 75.0 °F 59.0 °F 57% 29.98 in 10.0 mi SW 8.1 mph - N/A   Mostly Cloudy
2:54 PM 75.0 °F 61.0 °F 62% 29.94 in 10.0 mi SW 6.9 mph - N/A   Mostly Cloudy
3:54 PM 77.0 °F 62.1 °F 60% 29.92 in 10.0 mi SW 6.9 mph - N/A   Mostly Cloudy
4:54 PM 78.1 °F 62.1 °F 58% 29.87 in 10.0 mi SSW 9.2 mph - N/A   Mostly Cloudy
5:54 PM 78.1 °F 62.1 °F 58% 29.88 in 10.0 mi SSW 8.1 mph - N/A   Mostly Cloudy
6:54 PM 77.0 °F 62.1 °F 60% 29.87 in 10.0 mi South 9.2 mph - N/A   Mostly Cloudy
7:54 PM 75.0 °F 62.1 °F 64% 29.87 in 10.0 mi South 8.1 mph - N/A   Mostly Cloudy
8:54 PM 73.0 °F 62.1 °F 68% 29.86 in 10.0 mi South 11.5 mph - N/A   Scattered Clouds
9:54 PM 73.9 °F 62.1 °F 66% 29.81 in 10.0 mi South 17.3 mph - N/A   Scattered Clouds
10:54 PM 73.9 °F 62.1 °F 66% 29.80 in 10.0 mi South 18.4 mph - N/A   Scattered Clouds
11:54 PM 75.9 °F 62.1 °F 62% 29.78 in 10.0 mi SSW 20.7 mph 26.5 mph N/A   Mostly Cloudy